Simultaneous Nadir Overpasses (SNOs) Predictions

Prediction of SNOs between GOES-17 and LANDSAT-8 Satellite Orbit:

Table of predicted SNOs for the next 14.0 days since TLE Epoch: 7/24/2022
Index Date Time (GOES-17) GOES-17 Lat,Lon LANDSAT-8 Lat,Lon Distance(km) Time Diff (sec)
1 07/24/2022 07:13:45 0.00,-137.29 0.47,-135.01 258.65 80
2 07/24/2022 19:32:21 -0.01,-137.30 0.62,-140.17 327.44 80
3 07/26/2022 19:22:52 -0.01,-137.29 -0.05,-137.23 8.54 80
4 07/28/2022 19:10:42 -0.01,-137.28 -0.66,-134.27 342.49 80
5 07/29/2022 07:29:26 0.01,-137.28 -0.48,-139.46 248.93 80
6 07/31/2022 07:19:57 0.02,-137.26 0.19,-136.52 85.11 80
7 08/02/2022 07:07:47 0.02,-137.24 0.80,-133.56 418.75 80
8 08/02/2022 19:26:23 -0.03,-137.24 0.29,-138.72 167.90 80
9 08/04/2022 19:16:53 -0.02,-137.22 -0.32,-135.76 165.03 80
10 08/05/2022 07:35:37 0.02,-137.20 -0.76,-140.96 426.78 80
11 08/06/2022 19:04:43 -0.02,-137.18 -0.93,-132.81 496.97 80
